This demonstration page uses our WeatherBlox Daily Observations layout. Learn more.

Left ArrowRight Arrow

38.89511, -77.03637

Hourly Observations for June 2, 2022

Temp ( °F °C ) Dew Point ( °F °C ) Humidity (%) Winds ( mph kmh ) Pressure ( in mb ) Visibility ( mi km ) Precip ( " mm )
12:52 am 00:52 Mostly Cloudy 79 26.1 68 20 69 69 S 6 9 29.79 1009 10 16 0.00 0.00
1:52 am 01:52 Partly Cloudy 78 25.6 67 19.4 69 69 SSW 3 6 29.78 1009 10 16 0.00 0.00
2:52 am 02:52 Partly Cloudy 76 24.4 68 20 77 77 S 5 7 29.77 1008 10 16 0.00 0.00
3:52 am 03:52 Partly Cloudy 77 25 67 19.4 71 71 SW 3 6 29.77 1008 10 16 0.00 0.00
4:52 am 04:52 Mostly Clear 76 24.4 68 20 77 77 NE 8 13 29.78 1008 10 16 0.00 0.00
5:52 am 05:52 Mostly Cloudy 73 22.8 68 20 84 84 NE 7 11 29.79 1009 8 13 0.00 0.00
6:52 am 06:52 Partly Cloudy with Mist and Fog 72 22.2 68 20 87 87 NE 8 13 29.80 1009 5 8 0.00 0.00
6:56 am 06:56 Partly Cloudy with Mist and Fog 72 22.2 68 20 87 87 ENE 8 13 29.80 1009 4 6 0.00 0.00
7:09 am 07:09 Mostly Cloudy with Haze 73 22.8 68 20 84 84 NE 7 11 29.81 1009 4 6 0.00 0.00
7:40 am 07:40 Hazy 74 23.3 68 20 82 82 ENE 7 11 29.81 1009 4 6 0.00 0.00
7:52 am 07:52 Hazy 74 23.3 67 19.4 79 79 ENE 7 11 29.81 1009 4 6 0.00 0.00
8:52 am 08:52 Hazy 77 25 68 20 74 74 NE 3 6 29.80 1009 6 10 0.00 0.00
9:52 am 09:52 Hazy 78 25.6 68 20 71 71 ESE 3 6 29.78 1009 6 10 0.00 0.00
10:52 am 10:52 Mostly Sunny 84 28.9 68 20 59 59 ESE 3 6 29.77 1008 10 16 0.00 0.00
11:52 am 11:52 Partly Cloudy 85 29.4 69 20.6 59 59 S 6 9 29.75 1008 10 16 0.00 0.00
12:52 pm 12:52 Partly Cloudy 88 31.1 69 20.6 54 54 SSE 8 13 29.74 1007 10 16 0.00 0.00
1:52 pm 13:52 Mostly Cloudy 88 31.1 69 20.6 54 54 SSE 7 11 29.71 1006 10 16 0.00 0.00
2:29 pm 14:29 Mostly Cloudy with Nearby Thunderstorms 85 29.4 69 20.6 59 59 S 12 19 29.70 1006 10 16 0.00 0.00
2:39 pm 14:39 Mostly Cloudy with Thunderstorms 85 29.4 69 20.6 59 59 S 8 13 29.71 1006 10 16 0.00 0.00
2:47 pm 14:47 Cloudy with Thunderstorms 82 28 66 19 58 58 NW 17 28 29.72 1006 2 2 0.00 0.00
2:52 pm 14:52 Cloudy with Strong Thunderstorms 77 25 69 20.6 77 77 WNW 24 39 29.73 1007 1 2 0.08 2.03
2:59 pm 14:59 Cloudy with Strong Thunderstorms 76 24.4 65 18.3 69 69 NE 7 11 29.71 1006 4 6 0.17 4.32
3:14 pm 15:14 Mostly Cloudy 77 25 68 20 74 74 ENE 13 20 29.69 1005 10 16 0.19 4.83
3:32 pm 15:32 Cloudy with Nearby Thunderstorms 79 26.1 70 21.1 74 74 SE 3 6 29.69 1005 7 11 0.19 4.83
3:38 pm 15:38 Cloudy 80 26.7 70 21.1 71 71 VRB 5 7 29.70 1006 10 16 0.19 4.83
3:52 pm 15:52 Cloudy with Light Rain 78 25.6 69 20.6 74 74 N 7 11 29.69 1005 9 14 0.19 4.83
4:09 pm 16:09 Cloudy with Nearby Thunderstorms 78 25.6 70 21.1 76 76 NW 3 6 29.68 1005 8 13 0.00 0.00
4:18 pm 16:18 Cloudy with Thunderstorms 80 26.7 69 20.6 69 69 SSW 8 13 29.69 1005 9 14 0.01 0.25
4:47 pm 16:47 Cloudy with Nearby Thunderstorms 77 25 70 21 79 79 NNE 15 24 29.70 1006 10 16 0.04 1.02
4:52 pm 16:52 Cloudy with Nearby Thunderstorms 77 25 68 20 74 74 N 17 28 29.69 1006 10 16 0.04 1.02
4:55 pm 16:55 Mostly Cloudy with Nearby Thunderstorms 76 24.4 67 19.4 74 74 NNE 14 22 29.71 1006 10 16 0.00 0.00
5:05 pm 17:05 Cloudy with Thunderstorms 75 23.9 67 19.4 76 76 NNW 16 26 29.71 1006 10 16 0.00 0.00
5:21 pm 17:21 Mostly Cloudy with Nearby Thunderstorms 73 22.8 67 19.4 81 81 N 14 22 29.70 1006 10 16 0.00 0.00
5:36 pm 17:36 Mostly Cloudy with Nearby Thunderstorms 73 22.8 66 18.9 79 79 NW 9 15 29.71 1006 4 6 0.02 0.51
5:46 pm 17:46 Cloudy with Nearby Thunderstorms 73 23 66 19 78 78 WNW 6 9 29.71 1006 9 14 0.03 0.76
5:52 pm 17:52 Cloudy with Nearby Thunderstorms 73 22.8 67 19.4 81 81 N 9 15 29.69 1006 6 10 0.04 1.02
6:06 pm 18:06 Cloudy with Light Rain 74 23.3 69 20.6 85 85 NNE 7 11 29.70 1006 8 13 0.01 0.25
6:52 pm 18:52 Mostly Cloudy 74 23.3 69 20.6 85 85 SSE 5 7 29.72 1006 10 16 0.01 0.25
7:52 pm 19:52 Mostly Cloudy 74 23.3 68 20 82 82 S 7 11 29.72 1007 10 16 0.00 0.00
8:52 pm 20:52 Mostly Cloudy 74 23.3 68 20 82 82 WSW 5 7 29.74 1007 10 16 0.00 0.00
9:05 pm 21:05 Mostly Cloudy with Light Rain 74 23.3 68 20 82 82 SW 6 9 29.74 1007 10 16 0.00 0.00
9:52 pm 21:52 Mostly Cloudy 73 22.8 69 20.6 87 87 SSW 5 7 29.75 1007 10 16 0.02 0.51
10:52 pm 22:52 Cloudy with Light Rain 74 23.3 70 21.1 88 88 W 6 9 29.76 1008 8 13 0.01 0.25
11:52 pm 23:52 Cloudy with Light Rain 73 22.8 67 19.4 81 81 W 6 9 29.76 1008 10 16 0.07 1.78

Powered by AerisWeather